Regional Weather Roundup
Issued by NWS Charleston, SC

Current Version | Previous Version | Graphics & Text | Print | Product List | Glossary On
Versions: 1 2 3 4 5 6 7 8 9 10 11 12 13 14 15 16 17 18 19 20 21 22 23 24 25 26 27 28 29 30 31 32 33 34 35 36 37 38 39 40 41 42 43 44 45 46 47 48 49 50
000
ASUS42 KCHS 250125
RWRCHS

REGIONAL WEATHER ROUNDUP
NATIONAL WEATHER SERVICE CHARLESTON SC
800 PM EST WED DEC 24 2014

NOTE: "FAIR" INDICATES FEW OR NO CLOUDS BELOW 12,000 FEET WITH NO
SIGNIFICANT WEATHER AND/OR OBSTRUCTIONS TO VISIBILITY.

NOT ALL STATIONS ARE QUALITY CONTROLLED BY THE NATIONAL
WEATHER SERVICE. USE DATA WITH CAUTION...ESPECIALLY
DEWPOINT OBSERVATIONS.

SCZ027-030-031-034>040-042>050-250200-
...SOUTHEAST SOUTH CAROLINA...

CITY           SKY/WX    TMP DP  RH WIND       PRES   REMARKS
N CHARLESTON   CLOUDY    64  63  94 SW7       29.77F
WATERFRONT PRK   N/A     63 N/A N/A SW9         N/A
MOUNT PLEASANT FAIR      64  63  94 SW8       29.79R
PINOPOLIS        N/A     66  64  94 SW7       29.70R
MONCKS CORNER  CLOUDY    66  63  88 S7        29.76F
SUMMERVILLE    NOT AVBL
BEAUFORT MCAS  CLOUDY    65  63  93 S5        29.78S
BEAUFORT ARPT  FAIR      63  63 100 SW8       29.78S
HILTON HEAD IS CLOUDY    64  64 100 S7        29.79F
WALTERBORO     CLOUDY    64 N/A N/A S8        29.77F
ALLENDALE      CLOUDY    66  64  94 CALM      29.75S

...SOUTHERN MIDLANDS AND PEE DEE...

CITY           SKY/WX    TMP DP  RH WIND       PRES   REMARKS
GEORGETOWN     NOT AVBL
KINGSTREE      NOT AVBL
ORANGEBURG     CLOUDY    65  62  90 SW14      29.74F
BARNWELL       CLOUDY    66  66 100 S10       29.76R
AIKEN          MOCLDY    64  64 100 S10       29.76R
MANNING        FAIR      64 N/A N/A S6        29.74F
COLUMBIA       CLOUDY    67  64  90 S8        29.72S
SUMTER         CLOUDY    64  63  94 S12       29.71S
FLORENCE       CLOUDY    66  63  90 SW10      29.73F
MYRTLE BEACH   MOCLDY    64  63  94 S14G20    29.77F FOG
N MYRTLE BEACH CLOUDY    62  60  93 SW8       29.76F FOG

$$

GAZ063-065-086>088-099>101-113>116-118-119-134>141-150-250200-
...SOUTHEAST GEORGIA...

CITY           SKY/WX    TMP DP  RH WIND       PRES   REMARKS
SAVANNAH ARPT  CLOUDY    64  63  94 S8        29.78F
HUNTER AAF     DRIZZLE   64  64 100 S6        29.78S
FORT STEWART   CLOUDY    67  65  95 S6        29.77S
STATESBORO     CLOUDY    66  66 100 SW8       29.78R
SYLVANIA       LGT RAIN  66  66 100 SW6       29.78R
CLAXTON        CLOUDY    66  66 100 SW3       29.79R

...CSRA...CENTRAL AND FAR SOUTHEAST GEORGIA...

CITY           SKY/WX    TMP DP  RH WIND       PRES   REMARKS
THOMSON        CLOUDY    67  63  88 SW6       29.78R
AUGUSTA-BUSH   CLOUDY    67  64  90 S7        29.73R
AUGUSTA-DANIEL CLOUDY    67  64  90 S8        29.73R
SWAINSBORO     CLOUDY   N/A N/A N/A SW7       29.77S
VIDALIA        CLOUDY    66  64  94 SW10      29.79R
EASTMAN        CLOUDY    61  59  92 NW8       29.84R
HAZLEHURST     CLOUDY    68  67  99 SW5       29.79R
ALMA           CLOUDY    67  64  90 SW8       29.81R
WAYCROSS       LGT RAIN  70  69  97 SW9       29.81R
JESUP          RAIN      70  68  94 CALM      29.81R
BAXLEY         CLOUDY    68  66  94 SW5       29.80R
BRUNSWICK      CLOUDY    68  64  88 SW7       29.82S
SAINT SIMONS   CLOUDY    64  63  96 CALM      29.81S FOG

$$

SCZ027-028-034-036>038-045-046-048>050-GAZ119-141-250200-
...LAKE AND SUPPLEMENTAL COASTAL OBSERVATIONS...

STATION/POSITION TIME  TEMP    WIND        PRES    WAVE   SWELL
                       AIR SEA DIR/SP/G            HT/PER HT/PER/DIR
                 (UTC) (F)     (DEG/KT/KT) (MB)    (FT/S) (FT/S/D)
UPR LAKE MARION  NOT AVBL
WINYAH BAY       0100   63     200/  7     1007.0S
LAKE MURRAY      0100   62     210/  9/ 10 1005.8F
ACE BASIN NERRS  0000   61     230/  1     1008.0S
FORT PULASKI     0100          190/  5/  7   N/A
SAPELO ISLAND    0100   64     170/  6     1009.0S

$$

ANZ835-935-AMZ111-154-330-350-352-354-370-450-454-472-250200-
...C-MAN AND BUOY OBSERVATIONS...

STATION/POSITION TIME  TEMP    WIND        PRES    WAVE   SWELL
                       AIR SEA DIR/SP/G            HT/PER HT/PER/DIR
                 (UTC) (F)     (DEG/KT/KT) (MB)    (FT/S) (FT/S/D)
BUOY 41004       0100   69 74  200/ 12/ 17 1007.9F   7/ 8   7/ 8
BUOY 41008       0100   63 59  190/ 10/ 12 1009.3R   5/ 7   3/140/ 7
FOLLY BEACH CMAN 0100   58     230/  5/  6 1009.1R
CAPERS NEARSHORE 0000   59     210/  8/ 12   N/A
FRIPP NEARSHORE  NOT AVBL


STATION/POSITION TIME  TEMP    WIND        PRES    WAVE   SWELL
                       AIR SEA DIR/SP/G            HT/PER HT/PER/DIR
                 (UTC) (F)     (DEG/KT/KT) (MB)    (FT/S) (FT/S/D)
5E ST. MARYS GA  0100      61                N/A     4/ 7
FRYING PAN BUOY  0100   73 71  200/ 16/ 19 1009.4F   8/ 8   5/180/ 8
BUOY 41025       0100   68                 1010.9R   8/ 7
CAPE LOOKOUT NC  0100   62     150/  5/  6 1009.7F
BUOY 41002       0007   74 71  200/ 16/ 19 1015.1R   6/ 6   2/ 90/10
BUOY 41010       0100   77 77  190/ 19/ 23 1013.7R   6/ 7   3/170/16
ST AUGUSTINE FL  0100   67     220/  8/ 10 1011.6R


$$



USA.gov is the U.S. government's official web portal to all federal, state and local government web resources and services.